Weather History for Lake Charles Regional, LA

Change the Weather History Date:

Wednesday, December 14, 2011

  Actual Average Record
Temperature  
Mean Temperature 67 °F 54 °F  
Max Temperature 76 °F 64 °F 81 °F (1971)
Min Temperature 57 °F 44 °F 24 °F (1914)
Degree Days  
Heating Degree Days 0 12  
Month to date heating degree days 161 147  
Since 1 July heating degree days 377 354  
Cooling Degree Days 2 1  
Month to date cooling degree days 7 14  
Year to date cooling degree days 3248 2803  
Growing Degree Days 16 (Base 50)    
Moisture  
Dew Point 61 °F    
Average Humidity 85    
Maximum Humidity 100    
Minimum Humidity 69    
Precipitation  
Precipitation 0.00 in 0.15 in 1.85 in (1974)
Month to date precipitation 0.23 2.05  
Year to date precipitation 34.17 54.86  
Snow  
Snow 0.00 in 0.00 in 0.00 in ()
Month to date snowfall 0.0 0.0  
Since 1 July snowfall 0.0 0.0  
Snow Depth 0.00 in    
Sea Level Pressure  
Sea Level Pressure 30.17 in    
Wind  
Wind Speed 11 mph (SE)    
Max Wind Speed 20 mph    
Max Gust Speed 23 mph    
Visibility 6 miles    
Events Fog    
T = Trace of Precipitation, MM = Missing Value Source: NWS Daily Summary

Daily Weather History Graph

Daily Weather History Graph

Search for Another Location

Airport:

Trip Planner

Search our weather history database for the weather conditions in past years. The results will help you decide how hot, cold, wet, or windy it might be!

Date:

Astronomy

Dec. 14, 2011 Rise Set
Actual Time 7:00 AM CST 5:14 PM CST
Civil Twilight 6:34 AM CST 5:40 PM CST
Nautical Twilight 6:04 AM CST 6:10 PM CST
Astronomical Twilight 5:35 AM CST 6:39 PM CST
Moon 9:21 PM CST (12/14) 9:57 AM CST (12/14)
Length of Visible Light 11h 06m
Length of Day
10h 13m
Waning Gibbous, 83% of the Moon is Illuminated
Dec 14
Waning Gibbous
Dec 17
Last Quarter
Dec 24
New
Jan 1
First Quarter
Jan 9
Full

Hourly Weather History & Observations

Time (CST) Temp. Dew Point Humidity Pressure Visibility Wind Dir Wind Speed Gust Speed Precip Events Conditions
12:19 AM 57.2 °F 55.4 °F 94% 30.24 in 2.5 mi SSE 12.7 mph - N/A   Overcast
12:27 AM 57.2 °F 55.4 °F 94% 30.24 in 1.5 mi SE 12.7 mph - N/A   Overcast
12:32 AM 57.2 °F 55.4 °F 94% 30.24 in 3.0 mi SSE 12.7 mph - N/A   Overcast
12:53 AM 57.9 °F 55.9 °F 93% 30.26 in 10.0 mi SE 9.2 mph - N/A   Overcast
1:24 AM 57.2 °F 55.4 °F 94% 30.23 in 2.5 mi ESE 6.9 mph - N/A   Overcast
1:35 AM 57.2 °F 55.4 °F 94% 30.23 in 4.0 mi ESE 8.1 mph - N/A   Overcast
1:53 AM 57.0 °F 55.9 °F 96% 30.25 in 2.0 mi ESE 10.4 mph - N/A   Overcast
2:00 AM 57.2 °F 55.4 °F 94% 30.22 in 1.5 mi SE 9.2 mph - N/A   Overcast
2:37 AM 57.2 °F 55.4 °F 94% 30.21 in 0.8 mi ESE 10.4 mph - N/A   Mist
2:53 AM 57.0 °F 55.9 °F 96% 30.23 in 0.8 mi ESE 11.5 mph - N/A   Mist
3:05 AM 57.2 °F 55.4 °F 94% 30.20 in 1.0 mi ESE 13.8 mph - N/A   Mist
3:34 AM 57.2 °F 57.2 °F 100% 30.20 in 0.8 mi ESE 10.4 mph - N/A   Mist
3:53 AM 57.0 °F 57.0 °F 100% 30.22 in 0.5 mi ESE 8.1 mph - N/A Fog Fog
4:53 AM 57.9 °F 57.0 °F 97% 30.20 in 0.5 mi ESE 10.4 mph - N/A Fog Fog
5:53 AM 57.9 °F 57.9 °F 100% 30.20 in 0.5 mi ESE 9.2 mph - N/A Fog Fog
6:53 AM 59.0 °F 57.9 °F 96% 30.20 in 0.8 mi ESE 12.7 mph - N/A   Mist
7:53 AM 59.0 °F 57.9 °F 96% 30.20 in 0.8 mi ESE 11.5 mph - N/A   Mist
8:10 AM 60.8 °F 59.0 °F 94% 30.18 in 1.0 mi ESE 11.5 mph - N/A   Mist
8:41 AM 60.8 °F 60.8 °F 100% 30.18 in 2.5 mi ESE 11.5 mph - N/A   Overcast
8:53 AM 61.0 °F 60.1 °F 97% 30.21 in 2.5 mi ESE 9.2 mph - N/A   Overcast
9:16 AM 62.6 °F 60.8 °F 94% 30.19 in 4.0 mi ESE 10.4 mph - N/A   Overcast
9:53 AM 64.9 °F 62.1 °F 90% 30.22 in 9.0 mi SE 13.8 mph - N/A   Overcast
10:20 AM 68.0 °F 62.6 °F 83% 30.19 in 10.0 mi SE 15.0 mph - N/A   Overcast
10:53 AM 69.1 °F 62.1 °F 78% 30.22 in 10.0 mi SE 17.3 mph - N/A   Scattered Clouds
11:16 AM 69.8 °F 62.6 °F 78% 30.18 in 10.0 mi SE 16.1 mph - N/A   Mostly Cloudy
11:48 AM 69.8 °F 62.6 °F 78% 30.17 in 10.0 mi ESE 12.7 mph - N/A   Overcast
11:53 AM 70.0 °F 63.0 °F 78% 30.19 in 10.0 mi ESE 9.2 mph - N/A   Overcast
12:20 PM 71.6 °F 64.4 °F 78% 30.15 in 10.0 mi ESE 11.5 mph - N/A   Overcast
12:33 PM 71.6 °F 64.4 °F 78% 30.14 in 10.0 mi ESE 12.7 mph - N/A   Overcast
12:53 PM 75.0 °F 64.0 °F 69% 30.16 in 10.0 mi ESE 12.7 mph - N/A   Overcast
1:04 PM 73.4 °F 64.4 °F 73% 30.12 in 10.0 mi SE 12.7 mph - N/A   Overcast
1:49 PM 75.2 °F 64.4 °F 69% 30.11 in 10.0 mi SSE 11.5 mph - N/A   Overcast
1:53 PM 75.0 °F 64.9 °F 71% 30.13 in 10.0 mi SSE 12.7 mph - N/A   Overcast
2:53 PM 75.0 °F 64.9 °F 71% 30.12 in 10.0 mi SSE 16.1 mph 21.9 mph N/A   Overcast
3:53 PM 73.9 °F 64.9 °F 73% 30.11 in 10.0 mi SSE 15.0 mph - N/A   Mostly Cloudy
4:53 PM 73.0 °F 66.0 °F 79% 30.11 in 10.0 mi SSE 12.7 mph - N/A   Partly Cloudy
5:53 PM 70.0 °F 66.0 °F 87% 30.11 in 10.0 mi SSE 9.2 mph - N/A   Overcast
6:53 PM 70.0 °F 66.0 °F 87% 30.12 in 10.0 mi SSE 11.5 mph - N/A   Overcast
7:53 PM 66.9 °F 64.9 °F 93% 30.13 in 9.0 mi SE 8.1 mph - N/A   Overcast
8:53 PM 66.0 °F 64.0 °F 93% 30.12 in 7.0 mi SE 10.4 mph - N/A   Overcast
9:12 PM 66.2 °F 64.4 °F 94% 30.10 in 6.0 mi SSE 8.1 mph - N/A   Overcast
9:21 PM 64.4 °F 64.4 °F 100% 30.10 in 6.0 mi SSE 8.1 mph - N/A   Overcast
9:29 PM 64.4 °F 64.4 °F 100% 30.09 in 5.0 mi SSE 9.2 mph - N/A   Overcast
9:48 PM 64.4 °F 64.4 °F 100% 30.09 in 5.0 mi SSE 8.1 mph - N/A   Overcast
9:53 PM 64.9 °F 64.0 °F 97% 30.11 in 4.0 mi SSE 8.1 mph - N/A   Overcast
10:49 PM 66.2 °F 64.4 °F 94% 30.09 in 4.0 mi SE 9.2 mph - N/A   Overcast
10:53 PM 66.9 °F 64.9 °F 93% 30.12 in 4.0 mi SE 9.2 mph - N/A   Overcast
11:32 PM 66.2 °F 64.4 °F 94% 30.09 in 4.0 mi SE 4.6 mph - N/A   Overcast
11:50 PM 66.2 °F 64.4 °F 94% 30.08 in 3.0 mi SE 3.5 mph - N/A   Overcast
11:53 PM 66.0 °F 64.0 °F 93% 30.11 in 3.0 mi SE 3.5 mph - N/A   Overcast